This demonstration page uses our WeatherBlox Daily Observations layout. Learn more.

Left ArrowRight Arrow

39.29038, -76.61219

Hourly Observations for August 16, 2015

Temp ( °F °C ) Dew Point ( °F °C ) Humidity (%) Winds ( mph kmh ) Pressure ( in mb ) Visibility ( mi km ) Precip ( " mm )
12:54 am 00:54 Mostly Clear 80 26.7 72 22.2 76 76 undefined N/A 29.91 1013 N/A 0.00 0.00
1:54 am 01:54 undefined 74 23.3 60 15.6 62 62 undefined N/A 30.15 1021 N/A 0.00 0.00
2:54 am 02:54 undefined 73 22.8 60 15.6 64 64 undefined N/A 30.14 1021 N/A 0.00 0.00
3:54 am 03:54 undefined 72 22.2 60 15.6 66 66 undefined N/A 30.14 1021 N/A 0.00 0.00
4:54 am 04:54 undefined 72 22.2 60 15.6 66 66 undefined N/A 30.14 1021 N/A 0.00 0.00
5:54 am 05:54 undefined 71 21.7 60 15.6 68 68 undefined N/A 30.14 1021 N/A 0.00 0.00
6:54 am 06:54 Mostly Sunny 82 27.7 76 24.4 82 82 undefined N/A 30.94 1048 N/A 0.00 0.00
7:54 am 07:54 undefined 74 23.3 61 16.1 64 64 undefined N/A 30.15 1021 N/A 0.00 0.00
8:54 am 08:54 Mostly Sunny 76 24.4 61 16.1 60 60 undefined N/A 30.19 1023 N/A 0.00 0.00
9:54 am 09:54 undefined 80 26.7 63 17.2 56 56 undefined N/A 30.16 1021 N/A 0.00 0.00
10:54 am 10:54 Mostly Cloudy 80 26.7 73 22.8 79 79 undefined N/A 30.09 1019 N/A 0.00 0.00
11:54 am 11:54 undefined 87 30.6 66 18.9 50 50 undefined N/A 30.14 1021 N/A 0.00 0.00
12:54 pm 12:54 Partly Cloudy 72 22.2 45 7.2 38 38 undefined N/A 30.11 1020 N/A 0.00 0.00
1:54 pm 13:54 undefined 89 31.7 65 18.3 45 45 undefined N/A 30.13 1020 N/A 0.00 0.00
2:54 pm 14:54 undefined 89 31.7 67 19.4 48 48 undefined N/A 30.11 1020 N/A 0.00 0.00
3:54 pm 15:54 undefined 89 31.7 68 20 50 50 undefined N/A 30.10 1019 N/A 0.00 0.00
4:54 pm 16:54 undefined 89 31.7 66 18.9 47 47 undefined N/A 30.09 1019 N/A 0.00 0.00
5:54 pm 17:54 undefined 88 31.1 64 17.8 45 45 undefined N/A 30.08 1019 N/A 0.00 0.00
6:54 pm 18:54 undefined 87 30.6 62 16.7 43 43 undefined N/A 30.08 1019 N/A 0.00 0.00
7:54 pm 19:54 Cloudy 54 12.2 52 11.1 93 93 undefined N/A 29.79 1009 N/A 0.00 0.03
8:54 pm 20:54 Clear 72 22.3 38 3.6 29 29 undefined N/A 30.10 1019 N/A 0.00 0.00
9:54 pm 21:54 undefined 81 27.2 66 18.9 61 61 undefined N/A 30.11 1020 N/A 0.00 0.00
10:54 pm 22:54 undefined 79 26.1 66 18.9 65 65 undefined N/A 30.11 1020 N/A 0.00 0.00
11:54 pm 23:54 undefined 79 26.1 64 17.8 60 60 undefined N/A 30.11 1020 N/A 0.00 0.00

Powered by AerisWeather